Flag for Brazil Weather past 2 weeks in Parnaíba, Piauí, Brazil

Now
81 °F

Clear.


Feels Like: 85 °F
Forecast: 78 / 93 °F
Wind: 3 mph from West

Location: Teresina Aeroporto

Current Time: Aug 30, 2014 at 4:12:05 AM

Latest Report: Aug 30, 2014 at 3:00 AM


Visibility: 10 mi

Pressure: 29.89 "Hg

Humidity: 74%

Dew point: 72 °F

Location of ParnaíbaLocation

Historic Weather in Parnaíba — Graph

°F

Parnaíba temperature yesterday

Maximum temperature yesterday: 102 °F (at 4:00 PM)
Minimum temperature yesterday: 77 °F (at 3:00 AM)
Average temperature yesterday: 88 °F

Past Weeks' High & Low Weather Summary

 TemperatureHumidityPressure
High102 °F (Aug 29, 4:00 PM)94% (Aug 18, 6:00 AM)30.04 "Hg (Aug 18, 6:00 AM)
Low72 °F (Aug 15, 6:00 AM)18% (Aug 16, 5:00 PM)29.77 "Hg (Aug 23, 3:00 PM)
Average86 °F54%29.89 "Hg
* Reported Aug 15 3:00 AM — Aug 30 3:00 AM, Parnaíba, Weather by CustomWeather, © 2014

Note: Actual official high and low records may vary slightly from our data, if they occured in-between our weather recording intervals... More about our weather records

Advertising

Parnaíba weather history for previous 24 hours

 ConditionsComfort  
Time TempWeatherWind HumidityBarometerVisibility
3:00 AM
Aug 30
81 °FClear.3 mph74%29.89 "Hg10 mi
2:00 AM81 °FClear.3 mph74%29.89 "Hg10 mi
1:00 AM82 °FClear.5 mph66%29.89 "Hg10 mi
12:00 AM84 °FClear.5 mph66%29.89 "Hg10 mi
11:00 PM
Aug 29
86 °FClear.No wind59%29.92 "Hg10 mi
10:00 PM88 °FClear.No wind49%29.89 "Hg10 mi
9:00 PM90 °FClear.No wind41%29.86 "Hg10 mi
8:00 PM91 °FClear.14 mph44%29.83 "Hg10 mi
7:00 PM91 °FClear.2 mph46%29.83 "Hg10 mi
6:00 PM99 °FClear.No wind31%29.80 "Hg10 mi
4:00 PM102 °FPassing clouds.5 mph27%29.83 "HgN/A
3:00 PM100 °FPassing clouds.6 mph31%29.83 "HgN/A
2:00 PM99 °FPassing clouds.3 mph35%29.86 "HgN/A
1:00 PM97 °FPassing clouds.5 mph39%29.89 "HgN/A
12:00 PM97 °FPassing clouds.7 mph39%29.89 "HgN/A
11:00 AM93 °FPassing clouds.7 mph44%29.92 "HgN/A
10:00 AM90 °FSunny.7 mph55%29.95 "Hg10 mi
9:00 AM86 °FSunny.2 mph66%29.95 "Hg10 mi
8:00 AM82 °FSunny.2 mph79%29.95 "Hg10 mi
7:00 AM79 °FPassing clouds.No wind89%29.95 "HgN/A
6:00 AM77 °FSunny.No wind94%29.92 "Hg10 mi
5:00 AM77 °FClear.No wind94%29.89 "Hg10 mi
4:00 AM77 °FClear.2 mph89%29.89 "Hg10 mi
Weather by CustomWeather, © 2014

See weather overviewHow to use our weather pages